Location: Foligno
(42.9600°N, 12.7050°E)
Time: 11:36:42
(UTC+02:00)

ISS - Pass Details

Date: 14 July 2018
Orbit: 402 x 408 km, 51.6° (Epoch: 17 July)

Event Time Altitude Azimuth Distance (km) Brightness Sun altitude
Exits shadow 01:07:45 12° 59° (ENE) 1,327 -0.9 -25.3°
Drops below altitude 10° 01:08:06 10° 59° (ENE) 1,468 -0.7 -25.3°
Sets 01:10:11 0° 58° (ENE) 2,332 0.4 -25.3°
